Poplar Bluff, MO

6:45 PM CDT on August 28, 2016 (GMT -0500)
Poplar Bluff Municipal

Weather History for KPOF - November, 2013

Change the Weather History Date:

Friday, November 22, 2013

  Actual Average Record
Temperature  
Mean Temperature 48 °F -  
Max Temperature 55 °F 54 °F 78 °F (1931)
Min Temperature 39 °F 35 °F 10 °F (1964)
Degree Days  
Heating Degree Days 17    
Moisture  
Dew Point 43 °F    
Average Humidity 77    
Maximum Humidity 87    
Minimum Humidity 67    
Precipitation  
Precipitation 0.05 in - - ()
Sea Level Pressure  
Sea Level Pressure 30.31 in    
Wind  
Wind Speed 8 mph (North)    
Max Wind Speed 16 mph    
Max Gust Speed 26 mph    
Visibility 8 miles    
Events Rain    
Averages and records for this station are not official NWS values.
T = Trace of Precipitation, MM = Missing Value Source: NWS Daily Summary

Daily Weather History Graph

Daily Weather History Graph

Search for Another Location

Airport or City:

Trip Planner

Search our weather history database for the weather conditions in past years. The results will help you decide how hot, cold, wet, or windy it might be!

Date:

Astronomy

Nov. 22, 2013 Rise Set
Actual Time 6:46 AM CST 4:47 PM CST
Civil Twilight 6:18 AM CST 5:15 PM CST
Nautical Twilight 5:47 AM CST 5:47 PM CST
Astronomical Twilight 5:16 AM CST 6:18 PM CST
Moon 9:18 PM CST (11/22) 10:31 AM CST (11/22)
Length of Visible Light 10h 57m
Length of Day
10h 01m
Waning Gibbous, 78% of the Moon is Illuminated
Nov 22
Waning Gibbous
Nov 25
Last Quarter
Dec 2
New
Dec 9
First Quarter
Dec 17
Full

Hourly Weather History & Observations

Time (CST) Temp. Windchill Dew Point Humidity Pressure Visibility Wind Dir Wind Speed Gust Speed Precip Events Conditions
12:33 AM 55.9 °F - 52.0 °F 87% 30.17 in 2.5 mi NW 4.6 mph - 0.01 in Rain Light Rain
12:43 AM 55.9 °F - 52.0 °F 87% 30.18 in 3.0 mi NW 5.8 mph - 0.02 in Rain Light Rain
12:53 AM 55.9 °F - 52.0 °F 87% 30.19 in 3.0 mi NW 5.8 mph - 0.02 in   Overcast
12:57 AM 55.9 °F - 52.0 °F 87% 30.18 in 2.5 mi NW 6.9 mph - 0.00 in Rain Light Rain
1:26 AM 55.9 °F - 52.0 °F 87% 30.19 in 2.5 mi NNW 8.1 mph - 0.02 in Rain Light Rain
1:36 AM 55.9 °F - 52.0 °F 87% 30.19 in 4.0 mi NNW 5.8 mph - 0.02 in Rain Light Rain
1:53 AM 55.9 °F - 51.1 °F 84% 30.19 in 4.0 mi NNW 4.6 mph - 0.03 in Rain Light Rain
2:53 AM 55.9 °F - 51.1 °F 84% 30.19 in 10.0 mi North 5.8 mph - 0.00 in   Overcast
3:53 AM 55.0 °F - 50.0 °F 83% 30.19 in 10.0 mi North 3.5 mph - 0.00 in   Overcast
4:03 AM 55.0 °F - 50.0 °F 83% 30.20 in 10.0 mi NNW 5.8 mph - N/A   Overcast
4:36 AM 55.0 °F - 50.0 °F 83% 30.21 in 10.0 mi North 3.5 mph - N/A   Overcast
4:53 AM 55.0 °F - 50.0 °F 83% 30.22 in 10.0 mi NNW 4.6 mph - N/A   Overcast
5:06 AM 55.0 °F - 50.0 °F 83% 30.22 in 10.0 mi NNW 4.6 mph - N/A   Overcast
5:14 AM 55.0 °F - 50.0 °F 83% 30.22 in 10.0 mi NNW 4.6 mph - N/A   Overcast
5:53 AM 55.0 °F - 48.9 °F 80% 30.24 in 10.0 mi North 5.8 mph - N/A   Overcast
6:53 AM 55.0 °F - 48.0 °F 77% 30.27 in 10.0 mi North 10.4 mph - N/A   Overcast
7:53 AM 52.0 °F - 45.0 °F 77% 30.30 in 10.0 mi North 16.1 mph 26.5 mph N/A   Overcast
8:53 AM 51.1 °F - 43.0 °F 74% 30.34 in 10.0 mi North 13.8 mph 24.2 mph N/A   Overcast
9:53 AM 48.9 °F - 41.0 °F 74% 30.38 in 10.0 mi North 10.4 mph - N/A   Overcast
10:53 AM 48.0 °F - 39.0 °F 71% 30.39 in 10.0 mi North 12.7 mph 20.7 mph N/A   Overcast
11:53 AM 46.9 °F - 37.9 °F 71% 30.39 in 10.0 mi NNW 13.8 mph - N/A   Overcast
12:53 PM 46.0 °F 39.9 °F 36.0 °F 68% 30.38 in 10.0 mi North 13.8 mph - N/A   Overcast
1:53 PM 46.0 °F 40.2 °F 36.0 °F 68% 30.38 in 10.0 mi North 12.7 mph - N/A   Overcast
2:53 PM 45.0 °F 38.9 °F 35.1 °F 68% 30.38 in 10.0 mi North 12.7 mph - N/A   Overcast
3:53 PM 45.0 °F 38.9 °F 35.1 °F 68% 30.42 in 10.0 mi NNW 12.7 mph - N/A   Overcast
4:53 PM 43.0 °F 35.4 °F 34.0 °F 71% 30.42 in 10.0 mi North 16.1 mph 23.0 mph N/A   Overcast
5:53 PM 42.1 °F 34.5 °F 33.1 °F 70% 30.45 in 10.0 mi North 15.0 mph 23.0 mph N/A   Overcast
6:53 PM 42.1 °F 34.9 °F 33.1 °F 70% 30.45 in 10.0 mi North 13.8 mph - N/A   Overcast
7:53 PM 41.0 °F 34.3 °F 32.0 °F 70% 30.45 in 10.0 mi North 11.5 mph - N/A   Overcast
8:53 PM 41.0 °F 33.5 °F 32.0 °F 70% 30.47 in 10.0 mi NNE 13.8 mph - N/A   Overcast
9:53 PM 41.0 °F 34.3 °F 32.0 °F 70% 30.47 in 10.0 mi North 11.5 mph - N/A   Overcast
10:53 PM 41.0 °F 33.5 °F 30.9 °F 67% 30.47 in 10.0 mi NNE 13.8 mph - N/A   Overcast
11:53 PM 39.9 °F 32.1 °F 30.0 °F 68% 30.48 in 10.0 mi NNE 13.8 mph 17.3 mph N/A   Overcast